Regional Weather Roundup
Issued by NWS

Home | Current Version | Previous Version | Graphics & Text | Print | Product List | Glossary On
Versions: 1 2 3 4 5 6 7 8 9 10 11 12 13 14 15 16 17 18 19 20 21 22 23 24 25 26 27 28 29 30 31 32 33 34 35 36 37 38 39 40 41 42 43 44 45 46 47 48 49 50
000
ASUS43 KMPX 270101
RWRMN
WEATHER ROUNDUP FOR MINNESOTA
NATIONAL WEATHER SERVICE TWIN CITIES/CHANHASSEN MN
700 PM CST SUN FEB 26 2017


NOTE: "FAIR" INDICATES FEW OR NO CLOUDS BELOW 12,000 FEET WITH NO
SIGNIFICANT WEATHER AND/OR OBSTRUCTIONS TO VISIBILITY. N/A MEANS
CURRENT SKY AND/OR WEATHER CONDITIONS ARE NOT AVAILABLE.

MNZ060>063-068>070-270200-
   Twin Cities Metro

CITY           SKY/WX    TMP DP  RH WIND       PRES   REMARKS
TWIN CITIES    PTCLDY    29  12  49 NW9       29.91R WCI  20
ST PAUL        CLEAR     28  13  53 NW7       29.93R WCI  21
CRYSTAL        CLEAR     29  11  47 W5        29.91R WCI  24
BLAINE         CLEAR     28  10  47 W6        29.91R WCI  22
LAKEVILLE      CLEAR     28  19  69 W5        29.92R WCI  23
EDEN PRAIRIE   CLEAR     30  13  49 W5        29.91R WCI  25
SOUTH ST PAUL  CLEAR     32  14  48 W3        29.91R
LAKE ELMO      FAIR      30  12  47 W6        29.92R WCI  24
$$
MNZ001>005-007-008-013>017-022>024-027-028-270200-
   Northwest Minnesota

CITY           SKY/WX    TMP DP  RH WIND       PRES   REMARKS
BEMIDJI        CLEAR     14   5  69 W3        29.86R
HALLOCK        MOCLDY    16  10  79 SW9       29.85S WCI   4
ROSEAU         CLEAR     12   7  79 SW7       29.85R WCI   2
WARROAD        CLEAR     12   5  73 SW9       29.84S WCI   0
THIEF RVR FALL CLEAR     12   6  77 SW8       29.88R WCI   0
CROOKSTON      CLEAR     12   9  85 SW6       29.90S WCI   3
FOSSTON        CLEAR      9   3  78 SW6       29.88R WCI  -1
DETROIT LAKES  PTCLDY    18  12  79 CALM      29.89R
MOORHEAD       CLOUDY    18   9  68 SE3       29.91S
PARK RAPIDS    CLEAR     12   1  61 W6        29.86R WCI   3
MAHNOMEN       MOCLDY    16  10  78 SW6       29.88S WCI   7
$$
MNZ006-009>011-018-025>026-270200-
   North Central Minnesota

CITY           SKY/WX    TMP DP  RH WIND       PRES   REMARKS
BAUDETTE       CLEAR     15  -1  49 W7        29.82R WCI   5
FLAG ISLAND    CLEAR     16   1  53 W9        29.81R WCI   4
INTL FALLS     CLEAR     10   0  63 SW5       29.82R WCI   2
WASKISH        CLEAR     14   5  67 SW9       29.85S WCI   2
BIG FORK       CLEAR     14  -2  48 CALM      29.85R
LONGVILLE      CLEAR     12   3  67 CALM      29.87R
GRAND RAPIDS   CLEAR     12   0  58 CALM      29.87R
CRANE LAKE     CLEAR      7   0  72 CALM      29.84R
ORR            CLEAR     16  -4  41 CALM      29.80R
COOK           CLEAR     14   0  52 SW3       29.83R
WALKER         FAIR      17   2  51 W5        29.86R WCI  10
$$
MNZ012-019>021-037-270200-
   Northeast Minnesota

CITY           SKY/WX    TMP DP  RH WIND       PRES   REMARKS
DULUTH         CLEAR     16   1  51 W7        29.85R WCI   6
ELY            CLEAR     10   0  61 CALM      29.81R
HIBBING        CLEAR     13  -3  49 W3        29.84R
EVELETH        CLEAR     17  -7  33 SW5       29.85R WCI  10
DULUTH HARBOR  CLEAR     19   3  49 CALM      29.92R
TWO HARBORS    CLEAR     18   3  53 W3        29.85R
SILVER BAY     CLEAR     14   3  62 CALM      29.84R
GRAND MARAIS     N/A     15   4  61 CALM      29.88R
G MARAIS ARPRT CLEAR      9  -4  56 W3        29.78R
$$
MNZ029>031-032-039>041-046>048-054>057-064-270200-
   West Central Minnesota

CITY           SKY/WX    TMP DP  RH WIND       PRES   REMARKS
FERGUS FALLS   CLOUDY    16  10  79 W3        29.94F
WHEATON        PTCLDY    19  12  73 E7        29.91S WCI  10
MORRIS         PTCLDY    19  14  79 NE8       29.89R WCI   9
ALEXANDRIA     CLOUDY    19  10  68 NW5       29.89R WCI  12
ELBOW LAKE     CLOUDY    15   8  76 NE5       29.90S WCI   7
WADENA         MOCLDY    10   5  79 CALM      29.88R
GLENWOOD       CLOUDY    21  12  68 N6        29.89S WCI  14
APPLETON       CLEAR     21  16  79 NE3       29.91R
BENSON         CLEAR     21  10  63 NE6       29.92R WCI  14
ORTONVILLE     PTCLDY    21  16  79 CALM      29.89S
MADISON        CLEAR     27  19  74 NE7       29.91R WCI  19
WILLMAR        FAIR      25  18  74 N3        29.91R
$$
MNZ033>034-036-042>043-049>051-058-059-270200-
   Central Minnesota

CITY           SKY/WX    TMP DP  RH WIND       PRES   REMARKS
ST CLOUD       CLOUDY    27  11  51 NW7       29.90R WCI  19
SAUK CENTRE    CLOUDY    23  11  60 W6        29.90R WCI  16
PAYNESVILLE    CLEAR     24  13  63 NW5       29.90R WCI  18
AITKIN         CLEAR     14   7  73 CALM      29.87R
PINE RIVER     PTCLDY    19   9  63 CALM      29.91R
BRAINERD       CLEAR     19   6  57 W5        29.88R WCI  12
STAPLES        CLEAR     10   3  72 W3        29.89R
LONG PRAIRIE   FAIR      21   9  58 W3        29.90R
LITTLE FALLS   PTCLDY    23   5  46 CALM      29.90R
LITCHFIELD     CLEAR     27  14  59 NW5       29.90S WCI  21
BUFFALO        CLEAR     28  14  56 W3        29.91S
MAPLE LAKE     CLEAR     27  15  60 CALM      29.90S
HUTCHINSON     CLEAR     28  19  68 CALM      29.92R
$$
MNZ037-044-045-052-053-270200-
   East Central Minnesota

CITY           SKY/WX    TMP DP  RH WIND       PRES   REMARKS
PRINCETON      MOCLDY    27  10  50 CALM      29.90R
MORA           CLEAR     23   1  39 CALM      29.91R
CAMBRIDGE      CLEAR     28  12  50 CALM      29.89R
RUSH CITY      CLEAR     23   3  42 CALM      29.91R
MOOSE LAKE     PTCLDY    18   1  49 CALM      29.88R
HINCKLEY       FAIR      25   7  46 NW3       29.90R
CLOQUET        CLEAR     14   1  57 SW3       29.87R
MCGREGOR       CLEAR     18   3  53 CALM      29.88R
$$
MNZ071>073-080-081-089-090-097-098-270200-
   Southwest Minnesota

CITY           SKY/WX    TMP DP  RH WIND       PRES   REMARKS
MONTEVIDEO     CLEAR     25  19  80 E6        29.92R WCI  18
GRANITE FALLS  CLEAR     28  21  74 NE5       29.91S WCI  23
CANBY          CLOUDY    30  24  77 CALM      29.90R
MARSHALL       FLURRIES  30  23  75 E7        29.89R WCI  23
REDWOOD FALLS  CLEAR     29  17  61 N3        29.90R
OLIVIA         CLEAR     30  21  69 NE3       29.90R
PIPESTONE      CLEAR     30  23  74 SW7       29.86R WCI  23
WINDOM         CLEAR     32  27  80 SW9       29.89R WCI  24
WORTHINGTON    CLEAR     30  27  88 SW10      29.90R WCI  21
JACKSON        CLEAR     30  27  86 SW9       29.91R WCI  22
TRACY          CLOUDY    32  26  79 E3        29.89R
SLAYTON        CLEAR     31  27  84 SW10      29.88R WCI  22
$$
MNZ065>067-074>077-082>085-091>093-270200-
   South Central Minnesota

CITY           SKY/WX    TMP DP  RH WIND       PRES   REMARKS
MANKATO          N/A     31  23  72 CALM      29.93R
NEW ULM        CLEAR     28  19  69 CALM      29.92R
ST JAMES       CLOUDY    34  28  80 CALM      29.92R
FAIRMONT       PTCLDY    28  24  85 SW8       29.93R WCI  20
GLENCOE        CLEAR     30  23  75 CALM      29.91R
FARIBAULT      PTCLDY    28  19  69 CALM      29.92R
OWATONNA       CLOUDY    27  21  80 SW3       29.92R
WASECA         CLOUDY    30  27  86 CALM      29.93R
ALBERT LEA     CLEAR     27  23  86 SW6       29.93R WCI  20
$$
MNZ078>079-086>088-094>096-270200-
   Southeast Minnesota

CITY           SKY/WX    TMP DP  RH WIND       PRES   REMARKS
ROCHESTER      CLEAR     23  20  88 SW13      29.92R WCI  11
RED WING       CLEAR     30  18  59 NW3       29.91R
STANTON        CLEAR     31  19  61 W5        29.91R WCI  26
WINONA         CLEAR     32  25  74 SW7       29.94R WCI  26
AUSTIN         CLEAR     25  19  80 SW6       29.93R WCI  18
PRESTON        CLEAR     26  21  83 SW10      29.93R WCI  15
$$
ABBREVIATIONS USED IN REMARKS
   TC - TEMPERATURES IN CELSIUS
  WCI - WIND CHILL INDEX
   HX - HEAT INDEX
  VSB - VISIBILITY
$$



USA.gov is the U.S. government's official web portal to all federal, state and local government web resources and services.